Location: ??????????
(31.2156°N, 29.9553°E)
Time: 08:53:39
(UTC+00:00)

CSL-04 Rocket - Pass Details

Date: 03 March 2021
Orbit: 805 x 861 km, 98.9° (Epoch: 15 April)

Event Time Altitude Azimuth Distance (km) Brightness Sun altitude
Rises 16:36:23 0° 142° (SE) 3,423 6.5 -8.6°
Reaches altitude 10° 16:38:57 10° 134° (SE) 2,490 5.7 -9.1°
Maximum altitude 16:43:53 34° 70° (ENE) 1,376 4.3 -10.2°
Drops below altitude 10° 16:48:48 10° 8° (N) 2,488 6.1 -11.2°
Sets 16:51:21 0° 359° (N) 3,421 6.9 -11.8°
